This is the latest recevied weather packets stored in our database for station/object S57ZT-10. If no packets are shown the sender has not sent any weather packets the latest 10 day(s).
| Time | Temp. | Humidity | Pressure | Rain* | Wind** | Luminosity | Snow |
|---|---|---|---|---|---|---|---|
| 1777893501 | 31.67° C | 22% | 1016.8 hPa | - | - | - | - |
| 1777893468 | 31.67° C | 22% | 1016.8 hPa | - | - | - | - |
| 1777892567 | 31.11° C | 23% | 1017.1 hPa | - | - | - | - |
| 1777891667 | 30.56° C | 24% | 1017.3 hPa | - | - | - | - |
| 1777890768 | 30° C | 25% | 1017.5 hPa | - | - | - | - |
| 1777889868 | 30° C | 25% | 1017.8 hPa | - | - | - | - |
| 1777889001 | 29.44° C | 27% | 1018 hPa | - | - | - | - |
| 1777888967 | 29.44° C | 27% | 1018 hPa | - | - | - | - |
| 1777887199 | 28.33° C | 27% | 1018.5 hPa | - | - | - | - |
| 1777886273 | 27.78° C | 27% | 1018.4 hPa | - | - | - | - |
| 1777885423 | 27.78° C | 28% | 1018.7 hPa | - | - | - | - |
| 1777885366 | 27.78° C | 28% | 1018.7 hPa | - | - | - | - |
| 1777884467 | 27.22° C | 29% | 1018.8 hPa | - | - | - | - |
| 1777882668 | 25.56° C | 32% | 1019 hPa | - | - | - | - |
| 1777881766 | 25.56° C | 33% | 1019.1 hPa | - | - | - | - |
| 1777880868 | 24.44° C | 34% | 1019 hPa | - | - | - | - |
| 1777879981 | 23.89° C | 35% | 1019 hPa | - | - | - | - |
| 1777879102 | 23.33° C | 37% | 1019 hPa | - | - | - | - |
| 1777879068 | 23.33° C | 37% | 1019 hPa | - | - | - | - |
| 1777878165 | 22.22° C | 39% | 1019.1 hPa | - | - | - | - |
| 1777876367 | 19.44° C | 44% | 1019.2 hPa | - | - | - | - |
| 1777875464 | 18.33° C | 46% | 1019.3 hPa | - | - | - | - |
| 1777874563 | 17.78° C | 46% | 1019.2 hPa | - | - | - | - |
| 1777873674 | 17.22° C | 46% | 1019.1 hPa | - | - | - | - |
| 1777872768 | 16.67° C | 46% | 1019.1 hPa | - | - | - | - |
* Rain since midnight (hover to see other rain measurements)
** Current wind speed in m/s (hover to see current wind gust speed)